Flag for Namibia Weather past 2 weeks in Swakopmund, Namibia

Now
59 °F

Low clouds.


Feels Like: 59 °F
Forecast: 66 / 77 °F
Wind: 5 mph from Northeast

Location: Walvis Bay

Current Time: Mar 5, 2015 at 10:10:45 AM

Latest Report: Mar 5, 2015 at 9:00 AM


Visibility: 1 mi

Pressure: 29.92 "Hg

Humidity: 94%

Dew point: 57 °F

Location of SwakopmundLocation

Historic Weather in Swakopmund — Graph

°F

Swakopmund temperature yesterday

Maximum temperature yesterday: 77 °F (at 5:00 PM)
Minimum temperature yesterday: 59 °F (at 7:00 AM)
Average temperature yesterday: 63 °F

Past Weeks' High & Low Weather Summary

 TemperatureHumidityPressure
High81 °F (Feb 19, 1:00 PM)94% (Feb 20, 4:00 AM)30.04 "Hg (Feb 20, 4:00 AM)
Low55 °F (Feb 24, 6:00 AM)37% (Feb 19, 3:00 PM)29.80 "Hg (Feb 19, 5:00 PM)
Average64 °F73%29.92 "Hg
* Reported Feb 18 8:00 AM — Mar 5 8:00 AM, Swakopmund, Weather by CustomWeather, © 2015

Note: Actual official high and low records may vary slightly from our data, if they occured in-between our weather recording intervals... More about our weather records

Advertising

Swakopmund weather history for previous 24 hours

 ConditionsComfort  
Time TempWeatherWind HumidityBarometerVisibility
8:00 AM
Thu, Mar 5
59 °FFog.5 mph94%29.89 "Hg1 mi
7:00 AM59 °FFog.6 mph94%29.89 "Hg1 mi
6:00 AM59 °FCool.6 mph94%29.89 "HgN/A
5:00 AM59 °FCool.8 mph94%29.86 "HgN/A
4:00 AM61 °FCool.9 mph88%29.86 "HgN/A
3:00 AM59 °FCool.8 mph94%29.89 "HgN/A
2:00 AM59 °FCool.8 mph88%29.92 "HgN/A
1:00 AM59 °FCool.6 mph88%29.92 "HgN/A
12:00 AM61 °FCool.5 mph83%29.92 "HgN/A
11:00 PM
Wed, Mar 4
61 °FCool.5 mph88%29.95 "HgN/A
10:00 PM63 °FMild.3 mph83%29.92 "HgN/A
9:00 PM63 °FMild.10 mph83%29.89 "HgN/A
8:00 PM64 °FMild.13 mph78%29.89 "HgN/A
5:00 PM77 °FWarm.18 mph47%29.86 "HgN/A
1:00 PM75 °FMild.8 mph50%29.95 "HgN/A
11:00 AM66 °FMild.2 mph73%30.01 "HgN/A
10:00 AM63 °FMild.3 mph83%30.04 "HgN/A
Weather by CustomWeather, © 2015

See weather overviewHow to use our weather pages